User: anonymous   Login
Location: Unspecified
(0.0000°N, 0.0000°E)
Time: 09:28:21
(UTC+00:00)
Language:

WORLDVIEW-4 - Orbit

View from above orbital plane
View from above orbital plane
View from above satellite
View from above satellite

Ground track
Ground track

The orbit data is extracted from the following two-line orbital elements,

1 41848U 16067A   19084.16157758 -.00002430  00000-0 -27260-3 0  9998
2 41848  97.8855 163.9504 0009989 146.9298 213.2604 14.85874065128121
Epoch (UTC): 25 March 2019 03:52:40
Eccentricity: 0.0009989
inclination: 97.8855°
perigee height: 604 km
apogee height: 618 km
right ascension of ascending node: 163.9504°
argument of perigee: 146.9298°
revolutions per day: 14.85874065
mean anomaly at epoch: 213.2604°
orbit number at epoch: 12812

The dashed part of the orbit path shows where the satellite is in the earth's shadow,  

DLR